Regional Weather Roundup
Issued by NWS

Home | Current Version | Previous Version | Graphics & Text | Print | Product List | Glossary On
Versions: 1 2 3 4 5 6 7 8 9 10 11 12 13 14 15 16 17 18 19 20 21 22 23 24 25 26 27 28 29 30 31 32 33 34 35 36 37 38 39 40 41 42 43 44 45 46 47 48 49 50
000
ASUS43 KIND 221659
RWRIN

WEATHER ROUNDUP FOR INDIANA
NATIONAL WEATHER SERVICE INDIANAPOLIS IN
100 PM EDT FRI AUG 22 2014

NOTE: "FAIR" INDICATES FEW OR NO CLOUDS BELOW 12,000 FEET WITH NO
SIGNIFICANT WEATHER AND/OR OBSTRUCTIONS TO VISIBILITY.

* - STATION DOES NOT REPORT WEATHER SUCH AS PRECIPITATION OR FOG.

+ - STATION NOT QUALITY CONTROLLED BY THE NATIONAL WEATHER SERVICE.
    USE DATA WITH CAUTION...ESPECIALLY DEWPOINT AND RELATIVE
    HUMIDITY OBSERVATIONS.

INZ001>003-010>013-019-020-221800-
NORTHWEST INDIANA

CITY           SKY/WX    TMP DP  RH WIND       PRES   REMARKS
GARY /AIRPORT/ CLOUDY    82  73  74 SW7       29.96F
KNOX *+        CLOUDY    79  71  76 W5        29.97F
MONTICELLO +   CLOUDY    77  73  87 W5        29.98F
VALPARAISO     CLOUDY    78  72  81 SW8       29.98F

$$

LMZ046-743>745-221800-
SOUTHERN LAKE MICHIGAN

STATION/POSITION TIME  TEMP WIND        PRES
                       AIR  DIR/SP/G
                 (UTC) (F)  (DEG/KT/KT) (MB)
MICHIGAN CITY    1600   75  230/ 10/ 12   N/A

$$

INZ004-005-014>016-021>024-221800-
NORTH CENTRAL INDIANA

CITY           SKY/WX    TMP DP  RH WIND       PRES   REMARKS
ELKHART        PTSUNNY   81  72  74 W7        29.98S
GOSHEN         PTSUNNY   81  72  74 W6        29.97S
PERU/GRISSOM   PTSUNNY   81  79  94 SW12      29.99F
SOUTH BEND     CLOUDY    83  72  69 SW7       29.97F
WARSAW +       PTSUNNY   79  73  83 W8        29.98F

$$

INZ006>009-017-018-025>027-221800-
NORTHEAST INDIANA

CITY           SKY/WX    TMP DP  RH WIND       PRES   REMARKS
ANGOLA *+      PTSUNNY   82  72  69 CALM      29.97F
FORT WAYNE     CLOUDY    78  71  79 W10       29.99R

$$

INZ028-029-035-036-043>045-051>053-221800-
WEST CENTRAL INDIANA

CITY           SKY/WX    TMP DP  RH WIND       PRES   REMARKS
GREENCASTLE +  CLOUDY    77  73  88 NE5       30.02R
LAFAYETTE      CLOUDY    76  72  87 W5        29.99F
TERRE HAUTE    CLOUDY    81  73  76 SW6       29.99F

$$

INZ030>032-037>040-046>048-054>057-064-065-221800-
CENTRAL INDIANA

CITY           SKY/WX    TMP DP  RH WIND       PRES   REMARKS
ANDERSON       SUNNY     79  73  83 SW6       30.01R
FRANKFORT +    CLOUDY    79  72  80 W8        30.01F
INDIANAPOLIS   CLOUDY    78  72  81 W5        30.00S
-EAGLE CREEK   CLOUDY    78  71  79 CALM      30.00S
KOKOMO *+      CLOUDY    81  73  78 W10       29.99S
MT COMFORT *+  CLOUDY    77 N/A N/A SW6       30.01R
SHELBYVILLE    CLOUDY    80  74  81 CALM      30.00R

$$

INZ033-034-041-042-049-050-058-059-221800-
EAST CENTRAL INDIANA

CITY           SKY/WX    TMP DP  RH WIND       PRES   REMARKS
MUNCIE         PTSUNNY   79  71  76 W10       29.99R

$$

INZ060-061-067>069-081>083-085>088-221800-
SOUTHWEST INDIANA

CITY           SKY/WX    TMP DP  RH WIND       PRES   REMARKS
EVANSVILLE     PTSUNNY   86  74  67 W7        30.04S

$$

INZ062-063-066-070>080-084-089>092-221800-
SOUTH CENTRAL AND SOUTHEAST INDIANA

CITY           SKY/WX    TMP DP  RH WIND       PRES   REMARKS
BLOOMINGTON    CLOUDY    82  75  79 SW8       30.01F
SEYMOUR +      CLOUDY    79  61  53 SW8       29.99

$$




USA.gov is the U.S. government's official web portal to all federal, state and local government web resources and services.